Hourly Data Report for September 18, 2017

All times are specified in Local Standard Time (LST). Add 1 hour to adjust for Daylight Saving Time where and when it is observed.

ALERT CLIMATE
NUNAVUT

82°30'00.000" N
62°20'00.000" W
65.40 m
2400305
71355
ZLT

Download Data

Hourly Data (September 2017)
Hourly Data Report for September 18, 2017
Temp Definition
°C
Dew Point Temp Definition
°C
Rel Hum Definition
%
Wind Dir Definition
10's deg

Wind Spd Definition
km/h
Visibility Definition
km
Stn Press Definition
kPa
Hmdx Definition


Wind Chill Definition


Weather Definition


TIME
00:00 -13.4 -14.1 94 32 12   99.79   -20 LegendNANA
01:00 -12.7 -13.6 93 28 4   99.80   -15 LegendNANA
02:00 -12.6 -13.7 92   0   99.81     LegendNANA
03:00 -12.6 -13.7 92 0 1   99.80   -13 LegendNANA
04:00 -12.5 -13.4 92 7 5   99.80   -16 LegendNANA
05:00 -13.0 -14.0 92 9 4   99.84   -16 LegendNANA
06:00 -13.1 -14.2 91 29 6   99.83   -17 LegendNANA
07:00 -12.8 -13.5 95 27 15   99.81   -20 LegendNANA
08:00 -10.8 -14.3 76 27 25   99.83   -20 LegendNANA
09:00 -10.1 -13.6 75 25 30   99.82   -20 LegendNANA
10:00 -9.5 -12.8 77 25 36   99.82   -20 LegendNANA
11:00 -9.0 -12.5 76 25 37   99.82   -19 LegendNANA
12:00 -9.6 -12.6 78 26 30   99.87   -19 LegendNANA
13:00 -8.2 -11.4 78 25 31   99.86   -17 LegendNANA
14:00 -7.1 -10.9 75 24 47   99.83   -18 LegendNANA
15:00 -8.0 -11.3 77 27 38   99.93   -18 LegendNANA
16:00 -7.9 -12.6 69 29 21   100.04   -15 LegendNANA
17:00 -8.4 -12.2 74 27 18   100.13   -15 LegendNANA
18:00 -7.9 -11.1 77 27 14   100.20   -14 LegendNANA
19:00 -8.3 -11.8 76 28 21   100.29   -16 LegendNANA
20:00 -12.1 -14.9 79 30 5   100.39   -15 LegendNANA
21:00 -12.5 -14.0 88 12 6   100.48   -16 LegendNANA
22:00 -12.0 -13.9 86 8 6   100.56   -16 LegendNANA
23:00 -12.8 -13.9 92 13 2   100.66   -14 LegendNANA

Notes on Data Quality.

Legend

  • E = Estimated
  • M = Missing
  • NA = Not Available
  • ‡ = Partner data that is not subject to review by the National Climate Archives
Date modified: